Location: Cutler
(25.6150°N, 80.3110°W)
Time: 00:37:23
(UTC-04:00)

Cosmos 2360 Rocket - Visible Passes

Search period start: 22 April 2018 00:00
Search period end: 02 May 2018 00:00
Orbit: 835 x 844 km, 71.0° (Epoch: 21 April)

Date Brightness Start Highest point End Pass type
(mag) Time Alt. Az. Time Alt. Az. Time Alt. Az.
22 Apr 5.3 04:38:47 10° NE 04:41:14 13° ENE 04:43:40 10° E visible
22 Apr 2.2 06:20:00 10° NNW 06:25:31 60° WSW 06:31:02 10° S visible
23 Apr 5.3 04:23:32 10° NE 04:25:30 12° ENE 04:27:27 10° E visible
23 Apr 2.1 06:04:17 10° NNW 06:09:51 66° WSW 06:15:24 10° S visible
24 Apr 5.3 04:08:29 10° NE 04:09:46 11° ENE 04:11:03 10° ENE visible
24 Apr 2.1 05:48:34 10° NNW 05:54:10 71° WSW 05:59:45 10° S visible
25 Apr 2.1 05:32:52 10° NNW 05:38:29 77° WSW 05:44:05 10° SSE visible
26 Apr 2.1 05:17:11 10° NNW 05:22:48 83° WSW 05:28:25 10° SSE visible
27 Apr 2.1 05:01:29 10° NNW 05:07:08 89° SW 05:12:45 10° SSE visible
28 Apr 2.1 04:45:48 10° NNW 04:51:26 84° ENE 04:57:04 10° SSE visible
29 Apr 2.2 04:30:07 10° NNW 04:35:45 78° ENE 04:38:39 30° SSE visible
30 Apr 2.3 04:14:27 10° NNW 04:19:44 70° NE 04:19:44 70° NE visible
01 May 3.2 03:58:47 10° NNW 04:02:28 41° N 04:02:28 41° N visible
